Bridgeport, CT

3:25 PM EDT on July 28, 2017 (GMT -0400)
Sikorsky Memorial

Weather History for KBDR - February, 2012

Change the Weather History Date:

Friday, February 24, 2012

  Actual Average Record
Temperature  
Mean Temperature 38 °F 34 °F  
Max Temperature 43 °F 42 °F 65 °F (2017)
Min Temperature 33 °F 27 °F 0 °F (2015)
Degree Days  
Heating Degree Days 27 31  
Month to date heating degree days 627 790  
Since 1 July heating degree days 2986 3766  
Cooling Degree Days 0 0  
Month to date cooling degree days 0 0  
Year to date cooling degree days 0 0  
Moisture  
Dew Point 34 °F    
Average Humidity 74    
Maximum Humidity 92    
Minimum Humidity 55    
Precipitation  
Precipitation 0.94 in 0.11 in 1.35 in (1979)
Month to date precipitation 1.31 2.33  
Year to date precipitation 4.29 5.43  
Snow  
Snow 2.00 in 0.30 in 3.50 in (2005)
Month to date snowfall 2.2 7.0  
Since 1 July snowfall 13.6 20.5  
Snow Depth 0.00 in    
Sea Level Pressure  
Sea Level Pressure 29.58 in    
Wind  
Wind Speed 10 mph (NE)    
Max Wind Speed 21 mph    
Max Gust Speed 31 mph    
Visibility 5 miles    
Events Rain , Snow    
T = Trace of Precipitation, MM = Missing Value Source: NWS Daily Summary

Daily Weather History Graph

Daily Weather History Graph

Search for Another Location

Airport or City:

Trip Planner

Search our weather history database for the weather conditions in past years. The results will help you decide how hot, cold, wet, or windy it might be!

Date:

Astronomy

Feb. 24, 2012 Rise Set
Actual Time 6:35 AM EST 5:36 PM EST
Civil Twilight 6:07 AM EST 6:04 PM EST
Nautical Twilight 5:35 AM EST 6:36 PM EST
Astronomical Twilight 5:03 AM EST 7:08 PM EST
Moon 7:26 AM EST (2/24) 8:40 PM EST (2/24)
Length of Visible Light 11h 57m
Length of Day
11h 01m
Waxing Crescent, 7% of the Moon is Illuminated
Feb 24
Waxing Crescent
Feb 29
First Quarter
Mar 8
Full
Mar 14
Last Quarter
Mar 22
New

Hourly Weather History & Observations

Time (EST) Temp. Windchill Dew Point Humidity Pressure Visibility Wind Dir Wind Speed Gust Speed Precip Events Conditions
12:52 AM 41.0 °F 39.0 °F 28.0 °F 60% 29.76 in 10.0 mi ENE 3.5 mph - N/A   Overcast
1:52 AM 41.0 °F 37.1 °F 26.1 °F 55% 29.74 in 10.0 mi NNE 5.8 mph - N/A   Overcast
2:52 AM 39.0 °F 33.4 °F 28.9 °F 67% 29.78 in 5.0 mi NE 8.1 mph - 0.03 in Rain Rain
3:02 AM 35.6 °F 29.9 °F 28.4 °F 75% 29.79 in 2.5 mi NE 6.9 mph - 0.03 in Rain Rain
3:10 AM 35.6 °F 28.6 °F 28.4 °F 75% 29.77 in 1.5 mi NE 9.2 mph - 0.06 in Snow Light Snow
3:19 AM 33.8 °F 27.0 °F 28.4 °F 81% 29.76 in 0.8 mi NE 8.1 mph - 0.12 in Snow Light Snow
3:27 AM 33.8 °F 29.6 °F 28.4 °F 81% 29.77 in 1.0 mi NE 4.6 mph - 0.15 in Snow Light Snow
3:52 AM 33.1 °F 26.9 °F 28.9 °F 85% 29.77 in 0.8 mi ENE 6.9 mph - 0.24 in Snow Light Snow
4:15 AM 33.8 °F 26.4 °F 30.2 °F 87% 29.78 in 1.2 mi NE 9.2 mph - 0.08 in Snow Light Snow
4:22 AM 33.8 °F 25.8 °F 30.2 °F 87% 29.76 in 2.0 mi NE 10.4 mph - 0.09 in Snow Light Snow
4:34 AM 33.8 °F 25.8 °F 30.2 °F 87% 29.75 in 3.0 mi NE 10.4 mph - 0.10 in Snow Light Snow
4:52 AM 34.0 °F 25.5 °F 30.0 °F 85% 29.74 in 2.5 mi NE 11.5 mph - 0.12 in Snow Light Snow
5:07 AM 33.8 °F 25.8 °F 30.2 °F 87% 29.75 in 4.0 mi ENE 10.4 mph - 0.03 in Rain Rain
5:52 AM 35.1 °F 26.4 °F 30.9 °F 85% 29.73 in 10.0 mi ENE 12.7 mph - 0.08 in   Overcast
6:08 AM 35.6 °F 26.6 °F 30.2 °F 81% 29.71 in 10.0 mi ENE 13.8 mph - N/A   Overcast
6:52 AM 36.0 °F 28.5 °F 32.0 °F 86% 29.75 in 6.0 mi ENE 10.4 mph - 0.04 in Rain Rain
7:52 AM 35.1 °F 27.4 °F 32.0 °F 89% 29.73 in 4.0 mi NE 10.4 mph - 0.02 in Rain Light Rain
8:52 AM 35.1 °F 27.9 °F 32.0 °F 89% 29.70 in 8.0 mi NE 9.2 mph - 0.00 in   Overcast
9:52 AM 36.0 °F 27.1 °F 33.1 °F 89% 29.69 in 8.0 mi ENE 13.8 mph - N/A   Overcast
10:52 AM 37.0 °F 28.5 °F 33.1 °F 86% 29.67 in 10.0 mi ENE 13.8 mph - 0.00 in   Overcast
11:52 AM 37.9 °F 29.6 °F 34.0 °F 86% 29.62 in 10.0 mi ENE 13.8 mph - 0.02 in Rain Light Rain
12:52 PM 37.9 °F 30.0 °F 34.0 °F 86% 29.58 in 10.0 mi East 12.7 mph - 0.00 in   Overcast
1:29 PM 37.4 °F 29.8 °F 35.6 °F 93% 29.58 in 2.5 mi ENE 11.5 mph - N/A   Overcast
1:52 PM 37.9 °F 31.5 °F 35.1 °F 89% 29.57 in 2.5 mi ENE 9.2 mph - N/A   Overcast
2:16 PM 37.4 °F 30.3 °F 35.6 °F 93% 29.56 in 1.8 mi NE 10.4 mph - N/A   Overcast
2:52 PM 37.9 °F 32.1 °F 35.1 °F 89% 29.54 in 1.8 mi NE 8.1 mph - N/A   Overcast
3:52 PM 39.0 °F 31.4 °F 36.0 °F 89% 29.49 in 1.2 mi ENE 12.7 mph - 0.01 in   Overcast
4:18 PM 39.2 °F 31.6 °F 35.6 °F 87% 29.49 in 1.8 mi ENE 12.7 mph - N/A   Overcast
4:52 PM 39.0 °F 31.0 °F 36.0 °F 89% 29.44 in 1.8 mi ENE 13.8 mph - N/A   Overcast
5:33 PM 39.2 °F 31.6 °F 37.4 °F 93% 29.45 in 2.0 mi ENE 12.7 mph - 0.01 in Rain Light Rain
5:52 PM 39.9 °F 32.9 °F 37.0 °F 89% 29.44 in 2.5 mi ENE 11.5 mph - 0.02 in Rain Rain
6:21 PM 42.8 °F 37.0 °F 39.2 °F 87% 29.43 in 3.0 mi ENE 10.4 mph - 0.07 in Rain Light Rain
6:52 PM 42.1 °F 34.9 °F 39.0 °F 89% 29.36 in 4.0 mi East 13.8 mph - 0.13 in Rain Light Rain
7:52 PM 42.1 °F 37.7 °F 39.0 °F 89% 29.32 in 6.0 mi ENE 6.9 mph - 0.07 in Rain Light Rain
8:06 PM 42.8 °F 34.5 °F 39.2 °F 87% 29.39 in 3.0 mi WNW 18.4 mph 31.1 mph 0.04 in Rain Heavy Rain
8:14 PM 42.8 °F 38.0 °F 39.2 °F 87% 29.37 in 2.5 mi NNW 8.1 mph 26.5 mph 0.13 in Rain Heavy Rain
8:17 PM 41.0 °F 33.9 °F 39.2 °F 93% 29.37 in 3.0 mi NW 12.7 mph 17.3 mph 0.14 in Rain Rain
8:21 PM 41.0 °F 34.3 °F 37.4 °F 87% 29.35 in 5.0 mi NW 11.5 mph 17.3 mph 0.14 in Rain Light Rain
8:33 PM 41.0 °F 37.1 °F 37.4 °F 87% 29.34 in 9.0 mi NNW 5.8 mph - 0.15 in Rain Light Rain
8:52 PM 41.0 °F 36.4 °F 37.0 °F 86% 29.32 in 10.0 mi North 6.9 mph - 0.15 in   Overcast
9:52 PM 39.9 °F 32.5 °F 36.0 °F 86% 29.35 in 10.0 mi WNW 12.7 mph - 0.00 in Rain Light Rain
10:52 PM 39.9 °F 36.7 °F 35.1 °F 83% 29.35 in 10.0 mi WSW 4.6 mph - 0.01 in   Overcast
11:52 PM 41.0 °F 35.8 °F 35.6 °F 81% 29.36 in 10.0 mi West 8.1 mph - N/A   Clear